TimeCST,TemperatureF,Dew PointF,Humidity,Sea Level PressureIn,VisibilityMPH,Wind Direction,Wind SpeedMPH,Gust SpeedMPH,PrecipitationIn,Events,Conditions,WindDirDegrees,DateUTC
12:15 AM,58.1,55.8,92,30.27,10.0,ESE,5.8,-,N/A,,Clear,110,2013-01-23 06:15:00
12:35 AM,58.3,55.8,91,30.27,10.0,ESE,5.8,-,N/A,,Clear,110,2013-01-23 06:35:00
12:55 AM,58.6,55.9,91,30.27,10.0,ESE,5.8,-,N/A,,Clear,110,2013-01-23 06:55:00
1:15 AM,59.0,55.8,89,30.27,10.0,East,3.5,-,N/A,,Clear,90,2013-01-23 07:15:00
1:35 AM,58.6,55.6,90,30.27,10.0,Calm,Calm,-,N/A,,Clear,0,2013-01-23 07:35:00
1:55 AM,58.1,55.2,90,30.27,10.0,ENE,3.5,-,N/A,,Clear,70,2013-01-23 07:55:00
2:15 AM,55.9,53.8,92,30.26,7.0,ENE,3.5,-,N/A,,Scattered Clouds,60,2013-01-23 08:15:00
2:35 AM,57.2,54.5,91,30.26,7.0,Calm,Calm,-,N/A,,Mostly Cloudy,0,2013-01-23 08:35:00
2:55 AM,57.2,54.9,92,30.26,7.0,Calm,Calm,-,N/A,,Scattered Clouds,0,2013-01-23 08:55:00
3:15 AM,55.9,53.8,92,30.26,5.0,ENE,3.5,-,N/A,,Scattered Clouds,70,2013-01-23 09:15:00
3:35 AM,57.0,55.0,93,30.26,7.0,East,5.8,-,N/A,,Scattered Clouds,80,2013-01-23 09:35:00
3:55 AM,57.9,55.8,92,30.26,7.0,East,4.6,-,N/A,,Clear,80,2013-01-23 09:55:00
4:15 AM,57.0,54.9,92,30.26,5.0,ENE,3.5,-,N/A,,Scattered Clouds,70,2013-01-23 10:15:00
4:35 AM,55.6,53.8,94,30.25,5.0,ENE,3.5,-,N/A,,Mostly Cloudy,60,2013-01-23 10:35:00
4:55 AM,54.5,52.0,91,30.26,5.0,NNE,4.6,-,N/A,,Scattered Clouds,20,2013-01-23 10:55:00
5:15 AM,54.7,52.7,93,30.26,5.0,Calm,Calm,-,N/A,,Clear,0,2013-01-23 11:15:00
5:35 AM,54.0,51.8,92,30.26,5.0,Calm,Calm,-,N/A,,Clear,0,2013-01-23 11:35:00
5:55 AM,53.6,51.4,92,30.26,5.0,Calm,Calm,-,N/A,,Clear,0,2013-01-23 11:55:00
6:15 AM,52.7,50.7,93,30.27,5.0,Calm,Calm,-,N/A,,Clear,0,2013-01-23 12:15:00
6:35 AM,53.6,51.3,92,30.27,5.0,Calm,Calm,-,N/A,,Clear,0,2013-01-23 12:35:00
6:55 AM,52.7,49.6,89,30.27,7.0,Calm,Calm,-,N/A,,Clear,0,2013-01-23 12:55:00
7:15 AM,51.8,49.1,90,30.28,7.0,Calm,Calm,-,N/A,,Clear,0,2013-01-23 13:15:00
7:35 AM,51.3,48.7,91,30.29,7.0,Calm,Calm,-,N/A,,Clear,0,2013-01-23 13:35:00
7:55 AM,51.8,49.5,92,30.29,7.0,NNW,3.5,-,N/A,,Clear,340,2013-01-23 13:55:00
8:15 AM,53.6,51.3,92,30.30,5.0,Calm,Calm,-,N/A,,Clear,0,2013-01-23 14:15:00
8:35 AM,55.6,52.9,91,30.30,7.0,Calm,Calm,-,N/A,,Mostly Cloudy,0,2013-01-23 14:35:00
9:15 AM,63.7,58.5,83,30.32,7.0,Calm,Calm,-,N/A,,Mostly Cloudy,0,2013-01-23 15:15:00
9:35 AM,67.6,61.5,81,30.33,10.0,SE,4.6,-,N/A,,Scattered Clouds,140,2013-01-23 15:35:00
9:55 AM,70.3,62.6,76,30.34,10.0,SSE,5.8,-,N/A,,Clear,150,2013-01-23 15:55:00
10:15 AM,71.8,63.0,74,30.34,10.0,SSE,6.9,-,N/A,,Scattered Clouds,150,2013-01-23 16:15:00
10:35 AM,72.9,63.0,71,30.33,10.0,SE,9.2,-,N/A,,Mostly Cloudy,140,2013-01-23 16:35:00
10:55 AM,74.5,62.8,67,30.33,10.0,SSE,10.4,-,N/A,,Overcast,150,2013-01-23 16:55:00
11:15 AM,76.3,62.2,62,30.33,10.0,South,10.4,-,N/A,,Mostly Cloudy,180,2013-01-23 17:15:00
11:35 AM,76.3,60.6,58,30.33,10.0,South,11.5,16.1,N/A,,Mostly Cloudy,190,2013-01-23 17:35:00
11:55 AM,76.8,60.1,56,30.32,10.0,South,10.4,-,N/A,,Overcast,190,2013-01-23 17:55:00
12:15 PM,77.9,60.3,54,30.31,10.0,SSE,9.2,-,N/A,,Overcast,160,2013-01-23 18:15:00
12:35 PM,77.0,60.3,56,30.30,10.0,South,8.1,-,N/A,,Overcast,170,2013-01-23 18:35:00
12:55 PM,77.4,59.5,54,30.29,10.0,South,9.2,-,N/A,,Overcast,170,2013-01-23 18:55:00
1:15 PM,78.1,59.7,53,30.28,10.0,South,8.1,-,N/A,,Overcast,180,2013-01-23 19:15:00
1:35 PM,79.0,59.7,52,30.27,10.0,South,8.1,-,N/A,,Overcast,170,2013-01-23 19:35:00
1:55 PM,79.9,60.3,51,30.25,10.0,SSE,6.9,-,N/A,,Mostly Cloudy,160,2013-01-23 19:55:00
2:15 PM,78.3,60.3,54,30.24,10.0,SSE,10.4,-,N/A,,Mostly Cloudy,160,2013-01-23 20:15:00
2:35 PM,79.3,59.7,51,30.23,10.0,South,6.9,18.4,N/A,,Mostly Cloudy,180,2013-01-23 20:35:00
2:55 PM,79.7,60.6,52,30.22,10.0,South,13.8,-,N/A,,Mostly Cloudy,170,2013-01-23 20:55:00
3:15 PM,80.8,60.4,50,30.22,10.0,SSE,11.5,17.3,N/A,,Mostly Cloudy,160,2013-01-23 21:15:00
3:35 PM,79.7,60.8,52,30.22,10.0,SSE,8.1,-,N/A,,Scattered Clouds,160,2013-01-23 21:35:00
3:55 PM,79.7,61.2,53,30.22,10.0,SSE,12.7,18.4,N/A,,Mostly Cloudy,160,2013-01-23 21:55:00
4:15 PM,79.0,61.7,55,30.22,10.0,SE,17.3,23.0,N/A,,Mostly Cloudy,140,2013-01-23 22:15:00
4:35 PM,77.7,61.7,58,30.22,10.0,SE,18.4,21.9,N/A,,Mostly Cloudy,140,2013-01-23 22:35:00
4:55 PM,77.0,61.5,59,30.23,10.0,SE,15.0,-,N/A,,Scattered Clouds,140,2013-01-23 22:55:00
5:15 PM,76.1,61.2,60,30.23,10.0,SE,17.3,-,N/A,,Clear,140,2013-01-23 23:15:00
5:35 PM,74.7,60.8,62,30.23,10.0,SSE,16.1,-,N/A,,Clear,150,2013-01-23 23:35:00
5:55 PM,73.2,60.8,65,30.23,10.0,SE,15.0,-,N/A,,Clear,140,2013-01-23 23:55:00
6:15 PM,72.0,60.8,68,30.23,10.0,SE,13.8,-,N/A,,Clear,140,2013-01-24 00:15:00
6:35 PM,71.1,61.2,71,30.24,10.0,SSE,12.7,-,N/A,,Clear,150,2013-01-24 00:35:00
6:55 PM,70.3,61.7,74,30.25,10.0,SE,9.2,-,N/A,,Clear,140,2013-01-24 00:55:00
7:15 PM,69.6,61.3,75,30.25,10.0,SE,10.4,-,N/A,,Clear,130,2013-01-24 01:15:00
7:35 PM,68.7,61.3,77,30.25,10.0,SE,10.4,-,N/A,,Clear,140,2013-01-24 01:35:00
7:55 PM,68.2,61.7,80,30.25,10.0,SSE,11.5,-,N/A,,Clear,150,2013-01-24 01:55:00
8:15 PM,67.6,61.3,80,30.25,10.0,SSE,10.4,-,N/A,,Clear,150,2013-01-24 02:15:00
8:35 PM,67.1,61.3,82,30.25,10.0,SSE,12.7,-,N/A,,Clear,150,2013-01-24 02:35:00
8:55 PM,66.6,61.3,83,30.25,10.0,SSE,11.5,-,N/A,,Clear,150,2013-01-24 02:55:00
9:15 PM,66.6,61.5,84,30.25,10.0,SSE,10.4,-,N/A,,Clear,150,2013-01-24 03:15:00
9:35 PM,66.6,61.5,84,30.25,10.0,SSE,10.4,-,N/A,,Clear,160,2013-01-24 03:35:00
9:55 PM,65.8,61.2,85,30.25,10.0,SSE,10.4,-,N/A,,Clear,160,2013-01-24 03:55:00
10:15 PM,65.5,60.8,85,30.26,10.0,SSE,9.2,-,N/A,,Clear,160,2013-01-24 04:15:00
10:35 PM,64.8,60.6,86,30.26,10.0,SSE,8.1,-,N/A,,Clear,160,2013-01-24 04:35:00
10:55 PM,64.4,60.3,86,30.26,10.0,SSE,8.1,-,N/A,,Clear,160,2013-01-24 04:55:00
11:15 PM,64.0,60.1,87,30.26,10.0,SSE,6.9,-,N/A,,Clear,160,2013-01-24 05:15:00
11:35 PM,63.7,60.1,88,30.26,10.0,SSE,8.1,-,N/A,,Clear,150,2013-01-24 05:35:00
11:55 PM,63.9,60.3,88,30.26,10.0,SSE,6.9,-,N/A,,Clear,150,2013-01-24 05:55:00